Location: *
(33.6500°S, 71.5167°W)
Time: 10:15:12
(UTC+00:00)

Daily predictions for brighter satellites

Satellite Brightness Start Highest point End
(mag) Time Altitude Azimuth Time Altitude Azimuth Time Altitude Azimuth
ATLAS 3B R/B 3.8 22:55:05 10° NW 23:02:13 54° SW 23:09:31 10° SSE
Meteor 1-21 4.3 22:57:45 10° N 23:03:18 57° E 23:08:52 10° SSE
STARLINK-1054 3.8 22:59:34 10° NW 23:03:44 83° SW 23:07:58 10° SE
Cosmos 1536 Rocket 4.3 23:00:38 10° NNE 23:04:26 30° E 23:08:17 10° SSE
YAOGAN 6 2.9 23:01:18 10° SSE 23:04:42 43° E 23:08:04 10° N
STARLINK-60 3.9 23:01:44 10° SW 23:05:00 52° NW 23:08:14 10° NNE
ATLAS 5 CENTAUR R/B 2.9 23:02:38 10° S 23:07:02 27° SE 23:10:55 10° ENE
Feng Yun 1-1 Rocket 4.4 23:02:21 10° SSE 23:08:15 61° ENE 23:13:57 10° N
STARLINK-1062 3.9 23:04:33 10° NW 23:08:43 74° SW 23:12:56 10° SE
Cosmos 2292 Rocket 3.6 23:06:18 10° N 23:11:09 59° E 23:14:54 10° SSE
YAOGAN 1 4.1 23:09:46 10° SE 23:12:29 16° E 23:15:10 10° NE
Meteosat 1 Rocket2 4.4 23:08:21 10° NW 23:12:52 41° NNE 23:19:27 10° E
STARLINK-1053 4.0 23:09:33 10° NW 23:13:42 66° SW 23:17:54 10° SE
CZ-2C R/B 4.0 23:10:56 10° ENE 23:14:36 19° ESE 23:18:20 10° SSE
Cosmos 1455 Rocket 3.0 23:10:13 10° S 23:14:38 68° E 23:18:57 10° NNE
Cosmos 1943 3.4 23:12:26 10° S 23:17:56 49° ESE 23:23:21 10° NE
ADEOS Rocket 4.5 23:13:01 10° NNW 23:18:09 38° W 23:23:19 10° SSW
AQUARIUS 4.5 23:13:37 10° S 23:18:11 74° WSW 23:22:40 10° NNW
STARLINK-1061 4.2 23:14:31 10° NW 23:18:39 60° SW 23:22:49 10° SE
Cosmos 1025 Rocket 3.2 23:15:20 10° NNE 23:19:28 50° E 23:23:40 10° SSE
Cosmos 1953 4.0 23:17:57 10° SE 23:20:12 14° ESE 23:22:21 10° ENE
GP-B 4.5 23:16:13 10° SSW 23:20:31 45° W 23:24:46 10° NNW
Cosmos 1818 3.5 23:16:57 10° SSW 23:22:24 83° ESE 23:27:48 10° NNE
STARLINK-1067 4.4 23:19:33 10° WNW 23:23:39 53° SW 23:27:47 10° SE
Cosmos 1867 4.5 23:22:01 10° NW 23:27:16 51° WSW 23:32:33 10° SSE
STARLINK-29 3.1 23:27:09 10° SW 23:30:23 76° NW 23:33:35 10° NE
S3M 4.5 23:24:17 10° SSW 23:30:31 68° W 23:36:45 10° N
FALCON 9 DEB 3.2 23:27:28 10° SW 23:31:02 82° NW 23:34:33 10° NE
IRS-1C Rocket 4.4 23:30:49 10° S 23:36:09 73° WSW 23:41:25 10° NNW
Cosmos 1544 Rocket 3.7 23:37:39 10° S 23:42:03 78° W 23:46:24 10° N
Aureole 3 3.7 23:40:04 10° SSE 23:42:48 25° ESE 23:43:04 24° E
In-Cosmos 22 4.4 23:39:09 10° NNE 23:44:06 40° E 23:49:04 10° SSE
NOAA 11 4.4 23:39:02 10° SSE 23:44:20 48° E 23:49:34 10° N
Gbstr 26 Del rocket 4.0 23:41:16 10° NW 23:47:15 80° NE 23:54:41 10° SE
USA 215 3.2 23:42:44 10° SE 23:49:22 78° NE 23:55:56 10° NW
MOS 1 Rocket 4.0 23:50:03 10° NE 23:55:04 41° ESE 23:59:58 10° S
